Flag for Greenland Weather past 2 weeks in Nuuk, Greenland

Now
57 °F

Passing clouds.


Feels Like: 56 °F
Forecast: 42 / 54 °F
Wind: 7 mph from Northwest

Location: Godthaab / Nuuk

Current Time: Jul 28, 2015 at 5:50:35 PM

Latest Report: Jul 28, 2015 at 4:50 PM


Visibility: N/A

Pressure: 30.01 "Hg

Humidity: 55%

Dew point: 41 °F

Location of NuukLocation

Historic Weather in Nuuk — Graph

°F

Nuuk temperature yesterday

Maximum temperature yesterday: 48 °F (at 1:50 PM)
Minimum temperature yesterday: 39 °F (at 10:50 PM)
Average temperature yesterday: 44 °F

Past Weeks' High & Low Weather Summary

 TemperatureHumidityPressure
High63 °F (Jul 17, 4:50 PM)100% (Jul 19, 1:50 AM)30.21 "Hg (Jul 19, 1:50 AM)
Low36 °F (Jul 21, 6:50 AM)37% (Jul 17, 4:50 PM)29.89 "Hg (Jul 26, 9:50 PM)
Average47 °F78%30.07 "Hg
* Reported Jul 13 3:50 PM — Jul 28 3:50 PM, Nuuk, Weather by CustomWeather, © 2015

Note: Actual official high and low records may vary slightly from our data, if they occured in-between our weather recording intervals... More about our weather records

Advertising

Nuuk weather history for previous 24 hours

 ConditionsComfort  
Time TempWeatherWind HumidityBarometerVisibility
3:50 PM
Tue, Jul 28
57 °FPassing clouds.7 mph59%29.98 "HgN/A
2:50 PM59 °FPassing clouds.7 mph55%29.98 "HgN/A
1:50 PM57 °FPassing clouds.6 mph59%29.98 "HgN/A
12:50 PM57 °FPassing clouds.6 mph55%29.98 "HgN/A
11:50 AM54 °FPassing clouds.8 mph63%30.01 "HgN/A
10:50 AM50 °FPassing clouds.8 mph76%29.98 "HgN/A
9:50 AM46 °FScattered clouds.9 mph87%29.98 "HgN/A
8:50 AM46 °FSunny.8 mph87%29.98 "Hg1 mi
7:50 AM43 °FFog.12 mph93%29.98 "Hg0 mi
6:50 AM43 °FScattered clouds.8 mph93%29.98 "HgN/A
5:50 AM41 °FFog.7 mph100%29.98 "HgN/A
4:50 AM39 °FFog.8 mph100%29.98 "HgN/A
3:50 AM41 °FQuite cool.7 mph100%29.98 "HgN/A
2:50 AM41 °FPassing clouds.6 mph100%29.98 "HgN/A
1:50 AM41 °FPassing clouds.5 mph100%29.98 "HgN/A
12:50 AM39 °FFog.2 mph100%29.98 "Hg0 mi
11:50 PM
Mon, Jul 27
39 °FFog.1 mph100%29.98 "Hg1 mi
10:50 PM39 °FLight snow. Fog.5 mph100%29.98 "Hg0 mi
9:50 PM41 °FLight snow. Fog.6 mph100%29.98 "Hg0 mi
8:50 PM43 °FSnow flurries. Dense fog.6 mph93%29.98 "Hg0 mi
6:50 PM46 °FSnow. Fog.9 mph87%29.98 "HgN/A
5:50 PM48 °FSnow. Fog.9 mph82%29.95 "HgN/A
Weather by CustomWeather, © 2015

See weather overviewHow to use our weather pages